Regional Weather Roundup
Issued by NWS Upton, NY

Current Version | Previous Version | Text Only | Print | Product List | Glossary On
Versions: 1 2 3 4 5 6 7 8 9 10 11 12 13 14 15 16 17 18 19 20 21 22 23 24 25 26 27 28 29
000 ASUS41 KOKX 300904 RWROKX REGIONAL WEATHER ROUNDUP NATIONAL WEATHER SERVICE NEW YORK NY 500 AM EDT SAT JUL 30 2016 NOTE: "FAIR" INDICATES FEW OR NO CLOUDS BELOW 12,000 FEET WITH NO SIGNIFICANT WEATHER AND/OR OBSTRUCTIONS TO VISIBILITY. NYZ071-072-176-178-NJZ106-104-301000- NEW YORK CITY METRO AREA CITY SKY/WX TMP DP RH WIND PRES REMARKS Central Park CLEAR 75 67 76 NW3 29.97S LaGuardia APRT PTCLDY 77 70 79 NW3 29.93S Kennedy INTL PTCLDY 74 69 85 SW9 29.95S Newark/Liberty PTCLDY 74 70 87 W7 29.94S Bronx Bot Gard N/A 72 70 94 NE2 29.97R Wall St Helipt SUNNY 75 72 88 W3 29.95S Teterboro CLEAR 74 68 81 CALM 29.93S $$ NYZ177-179-078>081-301000- LONG ISLAND NEW YORK CITY SKY/WX TMP DP RH WIND PRES REMARKS Farmingdale CLEAR 73 70 90 CALM 29.95R MacArthur/ISP CLEAR 72 71 97 CALM 29.95R Shirley CLEAR 67 67 100 CALM 29.96R FOG Riverhead NOT AVBL Westhampton CLEAR 65 62 90 CALM 29.97R Southhampton N/A 68 66 94 CALM 29.92S Bridgehampton N/A 66 66 100 CALM 29.95R East Hampton FAIR 64 63 95 CALM 29.95R Montauk N/A 71 68 90 CALM 29.96R $$ NYZ052-065-067-301000- HUDSON VALLEY CITY SKY/WX TMP DP RH WIND PRES REMARKS White Plains CLEAR 70 67 90 NW3 29.96R FOG Newburgh CLEAR 68 61 77 CALM 29.99S Montgomery CLEAR 65 65 100 CALM 29.98R Poughkeepsie CLEAR 68 62 81 CALM 29.96S Albany PTCLDY 65 59 81 N6 30.00S $$ NJZ001-105-106-008-010-013-015-019>022-104-301000- NEW JERSEY CITY SKY/WX TMP DP RH WIND PRES REMARKS Newark/Liberty PTCLDY 74 70 87 W7 29.94S Teterboro CLEAR 74 68 81 CALM 29.93S Caldwell CLEAR 70 68 93 CALM 29.96S Morristown CLEAR 66 63 88 CALM 29.96R FOG Somerville PTCLDY 69 67 93 CALM 29.94R Linden FAIR 73 70 88 CALM 29.96S Sussex CLOUDY 67 67 100 CALM 29.98R Abdover N/A 67 65 93 CALM 29.98S Trenton MOCLDY 71 69 93 NW3 29.95R Millville CLEAR 72 70 93 E3 29.95R Atlantic City CLEAR 69 66 90 CALM 29.95R Wrightstown NOT AVBL Toms River CLEAR 68 67 96 CALM 29.96S FOG Belmar CLEAR 70 69 97 SW3 29.97R $$ PAZ047>061-062-071-301000- EASTERN PENNSYLVANIA CITY SKY/WX TMP DP RH WIND PRES REMARKS Philadelphia MOCLDY 74 71 91 E3 29.95R Allentown LGT RAIN 73 69 87 CALM 29.95F Scranton CLOUDY 69 62 78 E5 29.98S $$ CTZ002-004>006-009-010-012-RIZ004-006-007-MAZ004-011-015-301000- SOUTHERN NEW ENGLAND IN CT CITY SKY/WX TMP DP RH WIND PRES REMARKS Bradley INTL PTCLDY 67 62 84 N6 29.98R Hartford CLEAR 73 64 73 N7 29.96R Danbury CLOUDY 67 65 93 CALM 29.98R Wtrbury/Oxford N/A 68 63 83 NE6 29.99S Bridgeport CLEAR 73 69 87 N5 29.96R Meriden CLEAR 70 65 84 CALM 29.96S New Haven CLEAR 70 68 93 N6 29.96R Chester FOG 68 68 100 CALM 29.97R VSB 3/4 Groton CLEAR 69 67 93 N5 29.95R FOG Wilimantic CLEAR 68 67 96 CALM 29.97R IN RI CITY SKY/WX TMP DP RH WIND PRES REMARKS Providence CLEAR 69 66 90 CALM 29.96R Block Island CLEAR 69 68 96 NW5 29.96R Westerly CLEAR 68 64 87 CALM 29.96R FOG IN MA CITY SKY/WX TMP DP RH WIND PRES REMARKS Boston PTCLDY 72 66 81 NW7 29.95R Worchester CLEAR 67 56 67 N6 30.00R Westfield CLEAR 64 62 93 N3 29.98R Provincetown CLOUDY 68 67 96 N3 29.95R FOG Nantucket MOCLDY 70 68 93 N7 29.93R $$ ANZ330-335-338-340-345-350-353-355-301000- COASTAL MARINE OBSERVATIONS STATION/POSITION TIME SKY/WX TEMP WIND PRES VSBY WAVE AIR SEA DIR/SP/G HT/PER (UTC) (F) (DEG/KT/KT) (MB) (MI) (FT/S) NY HARB ENTRANCE 0750 72 72 250/ 4/ 6 1013.6 3/ 6 20S FIRE ISLAND 0750 73 72 220/ 4/ 4 1013.5 3/ 6 GREAT SOUTH BAY 0800 75 81 240/ 8/ 8 N/A 23 SSW MONTAUK P 0750 71 70 290/ 6/ 8 1014.0 3/ 6 15 E BARNEGAT LI 0800 78 N/A 3/ 6 HUDSON CANYON 0750 76 77 1013.6 3/ 6 KINGS POINT 0800 74 75 1013.7 EXECUTION ROCKS 0800 74 270/ 2/ 2 N/A CENTRAL LI SOUND 0800 74 75 240/ 8/ 8 N/A 1 EASTERN LI SOUND 0800 70 68 290/ 4/ 4 N/A ROBBINS REEF 0800 75 250/ 7/ 9 1013.3 $$ >>>>>>>>>>>>>>>>>>>>>>>>>>>> KEY <<<<<<<<<<<<<<<<<<<<<<<<<<< > < > SKY/WX - Sky Condition/Present Weather < > TMP - Temperature in Fahrenheit < > DP - Dew Point in Fahrenheit < > RH - Relative Humidity in Percent < > WIND - Direction (from) and Speed in MPH < > PRES - Mean Sea Level Pressure (inches of Hg) < > WCI - Wind Chill Index < > VSB - VISIBILITY IN MILES < > HX - HEAT INDEX < > TC - TEMPERATURE IN CELSIUS < > VRB - VARIABLE WIND DIRECTION < > < >>>>>>>>>>>>>>>>>>>>>>>>>>>> KEY <<<<<<<<<<<<<<<<<<<<<<<<<<<

USA.gov is the U.S. government's official web portal to all federal, state and local government web resources and services.